Terminal Aerodrome Forecast
Issued by NWS

Home | Current Version | Previous Version | Text Only | Print | Product List | Glossary On
Versions: 1 2 3 4 5 6 7 8 9 10 11 12 13 14 15 16 17 18 19 20 21 22 23 24 25 26 27 28 29 30 31 32 33 34 35 36 37 38 39 40 41 42 43 44 45 46 47 48 49 50
000
FTUS41 KCTP 292115 AAA
TAFBFD
TAF AMD
KBFD 292115Z 2921/3018 20006KT P6SM SKC
     FM300300 VRB03KT 5SM BR VCSH SCT050 BKN090
      TEMPO 3005/3009 1SM BR
     FM301100 VRB03KT 6SM HZ BKN050 PROB30 3016/3018 5SM -TSRA
      BKN040CB=

USA.gov is the U.S. government's official web portal to all federal, state and local government web resources and services.